GW6408 Weather Reports


time (UTC)temp
C
wind
direction
speed
KPH
gust
KPH
rain 1hr
cm
rain 24hr
cm
rain mn
cm
humidity
%
barometer
mb
20260507170030 11 80 3.2 16.1 0.36 3.15 3.15 91 1012.5
20260507164506 11 82 12.9 24.1 0.43 3.10 3.10 91 1011.9
20260507163015 12 90 6.4 17.7 0.48 3.02 3.02 92 1011.8
20260507161530 12 102 9.7 20.9 0.61 2.95 2.95 92 1011.8
20260507160031 12 71 11.3 17.7 0.58 2.79 2.79 92 1012.0
20260507154526 12 91 6.4 27.4 0.53 2.64 2.64 92 1011.8
20260507153017 12 76 9.7 27.4 0.43 2.54 2.54 92 1012.0
20260507151513 12 47 8.0 24.1 0.30 2.36 2.36 91 1012.3
20260507150020 12 32 12.9 24.1 0.18 2.21 2.21 91 1012.4
20260507144535 13 69 8.0 17.7 0.10 2.13 2.13 89 1012.0
20260507143025 13 78 8.0 20.9 0.08 2.11 2.11 90 1012.0
20260507141512 14 46 11.3 24.1 0.03 2.06 2.06 91 1011.7
20260507140016 15 107 6.4 16.1 0.03 2.03 2.03 92 1011.5
20260507134522 15 84 6.4 16.1 0.08 2.03 2.03 92 1011.4
20260507133026 15 36 8.0 19.3 0.08 2.03 2.03 92 1011.3
20260507131531 15 57 6.4 19.3 0.10 2.03 2.03 92 1011.1
20260507130027 15 58 9.7 20.9 0.15 2.01 2.01 92 1011.6
20260507124520 15 23 6.4 25.7 0.18 1.96 1.96 92 1011.8
20260507123032 15 46 11.3 24.1 0.33 1.96 1.96 92 1011.7
20260507121526 15 50 11.3 24.1 0.46 1.93 1.93 92 1011.6
20260507120026 15 38 12.9 22.5 0.51 1.85 1.85 91 1011.7
20260507114517 16 352 12.9 24.1 0.51 1.78 1.78 90 1011.7
20260507113028 18 270 0.0 3.2 0.61 1.63 1.63 93 1010.9
20260507111523 18 310 0.0 4.8 0.94 1.47 1.47 92 1011.1
20260507110032 18 247 0.0 4.8 1.22 1.32 1.32 92 1010.7
20260507104516 18 338 1.6 4.8 1.22 1.27 1.27 92 1010.8
20260507103033 18 300 1.6 6.4 0.97 1.02 1.02 91 1010.6
20260507101508 18 305 3.2 12.9 0.48 0.53 0.53 90 1010.5
20260507100013 19 292 3.2 8.0 0.10 0.13 0.13 88 1010.1
20260507094518 19 243 1.6 4.8 0.05 0.05 0.05 87 1009.7
20260507093016 19 290 3.2 9.7 0.05 0.05 0.05 87 1009.6
20260507091504 19 212 1.6 11.3 0.05 0.05 0.05 86 1009.7
20260507090009 20 269 1.6 11.3 0.03 0.03 0.03 83 1010.0
20260507084514 20 207 3.2 20.9 0.00 0.00 0.00 82 1010.1
20260507083028 20 240 4.8 12.9 0.00 0.00 0.00 81 1010.2
20260507081530 20 245 1.6 11.3 0.00 0.00 0.00 80 1010.4
20260507080011 20 227 1.6 11.3 0.00 0.00 0.00 80 1010.6
20260507074510 20 257 4.8 11.3 0.00 0.00 0.00 80 1010.8
20260507073016 20 307 4.8 11.3 0.00 0.00 0.00 81 1010.6
20260507071519 20 250 4.8 12.9 0.00 0.00 0.00 81 1010.6
20260507070024 20 238 1.6 11.3 0.00 0.00 0.00 81 1010.5
20260507064509 20 234 3.2 11.3 0.00 0.00 0.00 81 1010.2
20260507063010 20 213 3.2 9.7 0.00 0.00 0.00 79 1009.8
20260507061533 20 221 4.8 14.5 0.00 0.00 0.00 79 1010.7
20260507060023 20 261 3.2 11.3 0.00 0.00 0.00 78 1011.4
20260507054508 21 254 4.8 14.5 0.00 0.00 0.00 75 1011.5
20260507053016 21 270 3.2 14.5 0.00 0.00 0.00 74 1011.6
20260507051518 21 280 3.2 11.3 0.00 0.00 0.00 73 1011.7
20260507050025 21 244 3.2 12.9 0.00 0.00 0.00 71 1011.5
20260507044524 21 234 1.6 6.4 0.00 0.00 0.00 71 1011.3
20260507043010 21 221 3.2 11.3 0.00 0.00 0.00 71 1011.5
20260507041531 21 270 3.2 8.0 0.00 0.00 0.00 71 1011.5
20260507040020 22 245 0.0 8.0 0.00 0.00 0.00 70 1011.4
20260507034525 22 248 1.6 8.0 0.00 0.00 0.00 70 1011.1
20260507033031 22 273 3.2 9.7 0.00 0.00 0.00 70 1011.1
20260507031513 22 207 1.6 4.8 0.00 0.00 0.00 69 1010.9
20260507030016 22 260 3.2 8.0 0.00 0.00 0.00 68 1011.3
20260507024524 22 192 1.6 8.0 0.00 0.00 0.00 68 1011.5
20260507023031 22 190 3.2 6.4 0.00 0.00 0.00 67 1011.8
20260507021527 22 240 3.2 6.4 0.00 0.00 0.00 67 1011.7
20260507020014 22 192 3.2 4.8 0.00 0.00 0.00 67 1011.8
20260507014525 22 215 0.0 3.2 0.00 0.00 0.00 66 1011.9
20260507013038 22 215 0.0 9.7 0.00 0.00 0.00 65 1011.5
20260507011506 23 256 1.6 4.8 0.00 0.00 0.00 64 1011.6
20260507010022 23 211 1.6 9.7 0.00 0.00 0.00 63 1011.7
20260507004518 23 277 1.6 6.4 0.00 0.00 0.00 62 1011.7
20260507003020 23 257 3.2 8.0 0.00 0.00 0.00 61 1011.4
20260507001514 24 262 1.6 8.0 0.00 0.00 0.00 60 1011.3
20260507000022 24 249 1.6 12.9 0.00 0.00 0.00 59 1011.0
20260506234517 25 209 4.8 11.3 0.00 0.00 0.00 58 1011.1
20260506233025 25 232 3.2 16.1 0.00 0.00 0.00 58 1010.8
20260506231523 25 267 3.2 11.3 0.00 0.00 0.00 57 1010.7
20260506230006 25 150 4.8 11.3 0.00 0.00 0.00 57 1010.6
20260506224529 25 293 1.6 11.3 0.00 0.00 0.00 57 1010.7
20260506223025 25 259 3.2 12.9 0.00 0.00 0.00 57 1010.7
20260506221525 25 219 4.8 14.5 0.00 0.00 0.00 57 1010.7
20260506220028 25 241 6.4 16.1 0.00 0.00 0.00 57 1010.6
20260506214515 26 224 4.8 19.3 0.00 0.00 0.00 57 1010.6
20260506213016 26 246 4.8 22.5 0.00 0.00 0.00 56 1010.4
20260506211526 26 184 9.7 25.7 0.00 0.00 0.00 55 1010.0
20260506210026 26 205 8.0 24.1 0.00 0.00 0.00 55 1010.4
20260506204526 25 209 9.7 25.7 0.00 0.00 0.00 56 1010.7
20260506203019 25 247 6.4 19.3 0.00 0.00 0.00 56 1011.0
20260506201522 26 238 16.1 25.7 0.00 0.00 0.00 54 1011.3
20260506200028 26 189 12.9 25.7 0.00 0.00 0.00 58 1011.6
20260506194527 25 169 6.4 27.4 0.00 0.00 0.00 59 1011.9
20260506193014 25 258 9.7 22.5 0.00 0.00 0.00 59 1012.1
20260506191519 25 223 6.4 20.9 0.00 0.00 0.00 60 1012.1
20260506190024 25 236 4.8 25.7 0.00 0.00 0.00 61 1012.3
20260506184528 25 222 12.9 35.4 0.00 0.00 0.00 60 1012.5
20260506183028 25 252 6.4 22.5 0.00 0.00 0.00 60 1012.5
20260506181519 24 248 9.7 24.1 0.00 0.00 0.00 60 1012.8
20260506180032 24 286 11.3 27.4 0.00 0.00 0.00 60 1013.1
20260506174527 25 232 12.9 29.0 0.00 0.00 0.00 59 1013.3
20260506173026 24 193 12.9 33.8 0.00 0.00 0.00 59 1013.5
20260506171544 23 229 11.3 22.5 0.00 0.00 0.00 61 1013.9